Simultaneous Nadir Overpasses (SNOs) Predictions

Prediction of SNOs between FY3D and METOP-C Satellite Orbit:

Table of predicted SNOs for the next 14.0 days since TLE Epoch: 8/13/2022
Index Date (FY3D) Time (FY3D) Lat,Lon (FY3D) SZA (FY3D ) Date (METOP-C) Time (METOP-C) Lat,Lon (METOP-C) SZA (METOP-C ) Distance(km) Time Diff (sec)
1 08/13/2022 23:12:16 74.79,-174.73 60.43 08/13/2022 23:13:22 74.79,-171.76 60.32 86.82 66
2 08/14/2022 00:02:58 -74.67, -7.08 119.70 08/14/2022 00:04:07 -74.59, -4.96 119.86 62.99 69
3 08/14/2022 00:53:40 74.44, 160.85 60.06 08/14/2022 00:54:52 74.38, 161.81 59.96 29.46 72
4 08/14/2022 01:44:22 -74.32, -31.51 120.06 08/14/2022 01:45:35 -74.28, -31.12 120.13 12.65 73
5 08/14/2022 02:35:07 74.23, 136.02 59.86 08/14/2022 02:36:17 74.21, 136.04 59.83 2.60 70
6 08/14/2022 03:25:51 -74.20, -56.60 120.16 08/14/2022 03:26:58 -74.21, -56.64 120.17 1.15 67
7 08/14/2022 04:16:38 74.21, 110.68 59.86 08/14/2022 04:17:38 74.23, 110.77 59.87 3.34 60
8 08/14/2022 05:07:22 -74.19, -81.94 120.16 08/14/2022 05:08:20 -74.18, -82.03 120.17 2.90 58
9 08/14/2022 05:58:09 74.20, 85.34 59.87 08/14/2022 05:59:00 74.21, 85.37 59.87 1.65 51
10 08/14/2022 06:48:54 -74.22,-107.40 120.10 08/14/2022 06:49:41 -74.21,-107.30 120.12 3.31 47
11 08/14/2022 07:39:40 74.18, 60.00 59.87 08/14/2022 07:40:22 74.19, 59.97 59.87 0.99 42
12 08/14/2022 08:30:25 -74.21,-132.74 120.10 08/14/2022 08:31:03 -74.19,-132.70 120.12 2.50 38
13 08/14/2022 09:21:11 74.17, 34.66 59.88 08/14/2022 09:21:44 74.17, 34.58 59.88 2.44 33
14 08/14/2022 10:11:56 -74.19,-158.08 120.09 08/14/2022 10:12:25 -74.17,-158.09 120.12 2.87 29
15 08/14/2022 11:02:43 74.20, 9.19 59.94 08/14/2022 11:03:05 74.19, 9.31 59.92 3.55 22
16 08/14/2022 11:53:27 -74.18, 176.58 120.09 08/14/2022 11:53:46 -74.19, 176.63 120.07 2.55 19
17 08/14/2022 12:44:14 74.19, -16.15 59.94 08/14/2022 12:44:27 74.17, -16.09 59.92 2.42 13
18 08/14/2022 13:34:58 -74.16, 151.23 120.08 08/14/2022 13:35:08 -74.17, 151.24 120.07 1.11 10
19 08/14/2022 14:25:45 74.17, -41.49 59.95 08/14/2022 14:25:49 74.15, -41.48 59.92 2.42 4
20 08/14/2022 15:16:29 -74.15, 125.89 120.08 08/14/2022 15:16:30 -74.15, 125.84 120.07 1.62 1
21 08/14/2022 16:07:16 74.16, -66.83 59.95 08/14/2022 16:07:10 74.18, -66.76 59.97 3.18 6
22 08/14/2022 16:58:00 -74.13, 100.55 120.07 08/14/2022 16:57:52 -74.13, 100.45 120.07 3.26 8
23 08/14/2022 17:48:47 74.14, -92.17 59.96 08/14/2022 17:48:32 74.15, -92.15 59.97 1.62 15
24 08/14/2022 18:39:32 -74.16, 75.09 120.01 08/14/2022 18:39:13 -74.15, 75.17 120.02 2.82 19
25 08/14/2022 19:30:18 74.13,-117.51 59.96 08/14/2022 19:29:54 74.13,-117.55 59.97 1.33 24
26 08/14/2022 20:21:03 -74.15, 49.75 120.01 08/14/2022 20:20:35 -74.13, 49.78 120.02 2.08 28
27 08/14/2022 21:11:49 74.11,-142.85 59.97 08/14/2022 21:11:16 74.11,-142.94 59.98 2.75 33
28 08/14/2022 22:02:34 -74.13, 24.41 120.00 08/14/2022 22:01:57 -74.11, 24.38 120.02 2.71 37
29 08/14/2022 22:53:21 74.14,-168.32 60.03 08/14/2022 22:52:37 74.14,-168.21 60.02 3.20 44
30 08/14/2022 23:44:05 -74.12, -0.93 120.00 08/14/2022 23:43:18 -74.14, -0.89 119.97 2.49 47
31 08/15/2022 00:34:52 74.13, 166.34 60.03 08/15/2022 00:33:59 74.12, 166.39 60.02 2.12 53
32 08/15/2022 01:25:36 -74.10, -26.27 119.99 08/15/2022 01:24:40 -74.11, -26.28 119.97 1.37 56
33 08/15/2022 02:16:23 74.11, 141.00 60.04 08/15/2022 02:15:21 74.09, 141.00 60.02 2.31 62
34 08/15/2022 03:07:07 -74.09, -51.61 119.99 08/15/2022 03:06:02 -74.09, -51.68 119.97 2.03 65
35 08/15/2022 03:57:54 74.10, 115.66 60.04 08/15/2022 03:56:42 74.12, 115.72 60.07 3.07 72
36 08/15/2022 04:48:38 -74.07, -76.95 119.98 08/15/2022 04:47:24 -74.07, -77.07 119.97 3.59 74
37 08/15/2022 05:39:20 73.84, 90.93 59.78 08/15/2022 05:38:09 73.85, 89.73 59.85 37.25 71
38 08/15/2022 06:30:01 -73.71,-101.45 120.34 08/15/2022 06:28:51 -73.75,-103.18 120.24 53.95 70
39 08/15/2022 07:20:43 73.48, 66.41 59.42 08/15/2022 07:19:37 73.48, 63.52 59.53 91.37 66



Historial Predications of SNOs between FY3D and METOP-C
